CAPE
0 8 12 11 9 13 7 0 0 0 0 0 0 0 0 0 0 0 0 0 0 0 0 0 0 98 154 166 317 468 648 624 387 379 581 601 454 547 780 344 0 52 0
0 8 15 22 20 4 0 0 0 0 0 0 0 0 0 0 0 0 0 0 0 0 0 0 0 0 4 8 13 206 381 499 468 272 230 236 618 613 794 332 0 41 11
0 8 13 16 11 0 0 0 0 0 0 0 0 0 0 0 0 0 0 0 0 0 0 0 0 0 0 0 3 4 32 216 259 344 268 393 578 590 754 489 15 127 208
1 5 11 6 2 0 0 0 0 0 0 0 0 0 0 0 0 0 0 0 0 0 0 0 0 0 0 0 0 0 1 15 8 56 259 427 606 613 726 817 97 241 450
5 2 4 2 0 0 0 0 0 0 0 0 0 0 0 0 0 0 0 0 0 0 0 0 0 0 0 0 0 0 0 0 0 6 400 500 495 636 757 979 373 492 512
2 1 2 2 0 0 0 0 0 0 0 0 0 0 0 0 0 0 0 0 0 0 0 0 0 0 0 0 0 0 0 0 0 1 6 344 488 661 711 1105 733 577 315
3 0 2 0 0 0 0 0 0 0 0 0 0 0 0 0 0 0 0 0 0 0 0 0 1 1 1 1 0 0 0 0 0 0 2 4 517 540 690 960 805 546 365
1 0 1 0 0 0 0 0 0 0 0 0 0 0 0 0 0 0 0 0 0 0 0 1 1 1 2 2 2 2 3 0 0 0 0 0 19 594 715 715 817 451 307
3 2 0 0 0 0 0 0 0 0 0 0 0 0 0 0 0 0 0 0 0 0 0 0 0 1 1 1 0 0 0 0 0 0 0 0 0 161 784 821 768 474 259
3 7 7 1 0 0 0 0 0 0 0 0 0 0 0 0 0 0 0 0 0 0 0 0 0 0 0 0 0 0 0 0 0 0 0 0 0 0 569 931 879 598 324
3 3 2 0 0 0 0 0 0 0 0 0 0 0 0 0 0 0 0 0 0 0 0 0 0 0 0 0 0 0 0 0 0 0 0 0 0 0 95 819 909 570 516
0 0 0 0 0 0 0 0 0 0 0 0 0 0 0 0 0 0 0 0 0 0 0 0 0 0 0 1 1 0 1 0 0 0 0 0 0 0 0 596 807 824 664
0 0 0 0 0 0 0 0 0 0 0 0 0 0 0 0 0 0 0 0 0 0 3 2 1 2 3 5 5 6 8 6 2 0 0 0 0 0 0 159 731 838 628
0 0 0 0 0 0 0 0 0 0 0 0 0 0 0 0 0 0 0 0 0 4 2 3 2 2 2 3 6 9 22 19 40 8 3 0 0 0 0 46 613 771 585
0 0 0 0 0 0 0 0 0 0 0 0 0 0 0 0 0 0 0 0 2 5 5 6 12 4 1 5 0 20 27 143 272 253 181 45 0 0 0 0 633 663 566
0 0 0 0 0 0 0 0 0 0 0 0 0 0 0 0 0 0 0 2 2 2 11 14 10 8 8 5 13 23 21 180 257 256 260 281 183 0 0 44 489 547 463
0 0 0 0 0 0 0 0 0 0 0 0 0 0 0 0 0 0 1 1 1 1 10 11 14 23 34 31 26 25 0 80 232 292 279 196 0 0 0 282 485 487 404
0 0 0 0 0 0 0 0 0 0 0 0 0 0 0 0 0 0 2 1 0 1 11 6 3 15 20 17 11 11 5 1 1 153 413 348 613 398 243 349 93 31 214
0 0 0 0 0 0 0 0 0 0 0 0 0 0 0 0 0 0 0 2 0 1 5 2 3 18 7 5 11 2 2 2 1 11 171 485 502 551 559 170 104 19 118
0 0 0 0 0 0 0 0 0 0 0 0 0 0 0 0 0 0 0 3 0 2 4 6 2 3 8 4 4 3 1 2 1 2 60 469 445 605 390 232 168 146 154
0 0 0 0 0 0 0 0 0 0 0 0 0 0 0 0 0 0 0 2 0 6 3 4 2 3 1 1 28 9 14 1 3 2 0 254 208 184 164 117 112 68 87
0 0 0 0 0 0 0 0 0 0 0 0 0 0 0 0 0 0 1 3 0 0 5 2 1 1 2 2 0 32 8 0 0 3 0 1 1 6 16 24 77 32 53
0 0 0 0 0 0 0 0 0 0 0 0 0 0 0 0 0 0 0 2 0 0 3 5 1 1 1 3 2 1 28 0 1 2 2 2 2 2 1 1 4 4 2
0 0 0 0 0 0 0 0 0 0 0 0 0 0 0 0 0 0 0 2 0 0 5 4 0 3 3 5 0 0 6 0 0 2 2 1 2 2 1 1 1 0 0
0 0 0 0 0 0 0 0 0 0 0 0 0 0 0 0 0 0 0 0 0 0 7 1 0 1 1 0 0 1 0 0 0 0 2 2 1 2 1 2 2 1 0
0 0 0 0 0 0 0 0 0 0 0 0 0 0 0 0 0 0 0 0 0 0 7 2 0 1 1 1 1 2 6 0 0 1 1 0 1 2 2 1 0 0 0
CIN
-0 -1 -8 -6 -7 -3 -2 -0 -0 -0 -0 -0 -0 -0 -0 -0 -0 -0 -0 -0 -0 -0 -0 -0 -0 -45 -15 -10 -0 -0 -0 -3 -14 -12 -4 -5 -13 -7 -2 -22 -0 -44 -0
-0 -0 -11 -14 -11 -7 -0 -0 -0 -0 -0 -0 -0 -0 -0 -0 -0 -0 -0 -0 -0 -0 -0 -0 -0 -0 -2 -0 -86 -8 -0 -0 -6 -24 -30 -32 -3 -2 -1 -26 -0 -28 -40
-0 -7 -8 -15 -17 -1 -0 -0 -0 -0 -0 -0 -0 -0 -0 -0 -0 -0 -0 -0 -0 -0 -0 -0 -0 -0 -0 -0 -0 -0 -54 -8 -13 -20 -32 -6 -0 -7 -1 -15 -77 -30 -14
-0 -3 -7 -20 -13 -0 -0 -0 -0 -0 -0 -0 -0 -0 -0 -0 -0 -0 -0 -0 -0 -0 -0 -0 -0 -0 -0 -0 -0 -0 -0 -34 -48 -68 -17 -3 -1 -3 -2 -0 -48 -21 -3
-1 -3 -12 -14 -0 -0 -0 -0 -0 -0 -0 -0 -0 -0 -0 -0 -0 -0 -0 -0 -0 -0 -0 -0 -0 -0 -0 -0 -0 -0 -0 -0 -0 -18 -0 -1 -3 -1 -3 -0 -12 -2 -2
-2 -4 -12 -10 -0 -0 -0 -0 -0 -0 -0 -0 -0 -0 -0 -0 -0 -0 -0 -0 -0 -0 -0 -0 -0 -0 -0 -0 -0 -0 -0 -0 -0 -5 -86 -8 -9 -1 -3 -0 -0 -1 -7
-0 -0 -2 -0 -0 -0 -0 -0 -0 -0 -0 -0 -0 -0 -0 -0 -0 -0 -0 -0 -0 -0 -0 -0 -0 -0 -0 -0 -0 -0 -0 -0 -0 -0 -0 -61 -3 -1 -0 -0 -1 -4 -6
-0 -0 -2 -0 -0 -0 -0 -0 -0 -0 -0 -0 -0 -0 -0 -0 -0 -0 -0 -0 -0 -0 -0 -0 -0 -0 -0 -0 -0 -0 -0 -0 -0 -0 -0 -1 -86 -1 -0 -0 -0 -8 -7
-1 -0 -0 -0 -0 -0 -0 -0 -0 -0 -0 -0 -0 -0 -0 -0 -0 -0 -0 -0 -0 -0 -0 -0 -0 -0 -0 -0 -0 -0 -0 -0 -0 -0 -0 -0 -0 -24 -0 -0 -0 -10 -13
-1 -1 -0 -0 -0 -0 -0 -0 -0 -0 -0 -0 -0 -0 -0 -0 -0 -0 -0 -0 -0 -0 -0 -0 -0 -0 -0 -0 -0 -0 -0 -0 -0 -0 -0 -0 -0 -9 -0 -0 -0 -6 -11
-0 -0 -0 -0 -0 -0 -0 -0 -0 -0 -0 -0 -0 -0 -0 -0 -0 -0 -0 -0 -0 -0 -0 -0 -0 -0 -0 -0 -0 -0 -0 -0 -0 -0 -0 -0 -0 -0 -9 -0 -0 -12 -7
-0 -0 -0 -0 -0 -0 -0 -0 -0 -0 -0 -0 -0 -0 -0 -0 -0 -0 -0 -0 -0 -0 -0 -0 -0 -0 -0 -0 -0 -1 -0 -0 -0 -0 -0 -0 -0 -0 -0 -1 -0 -1 -0
-0 -0 -0 -0 -0 -0 -0 -0 -0 -0 -0 -0 -0 -0 -0 -0 -0 -0 -0 -0 -0 -0 -0 -0 -0 -0 -0 -0 -0 -0 -0 -0 -0 -0 -0 -0 -0 -0 -0 -24 -0 -0 -1
-0 -0 -0 -0 -0 -0 -0 -0 -0 -0 -0 -0 -0 -0 -0 -0 -0 -0 -0 -0 -0 -0 -0 -1 -0 -1 -0 -0 -0 -0 -0 -2 -0 -0 -0 -0 -0 -0 -0 -41 -0 -0 -0
-0 -0 -0 -0 -0 -0 -0 -0 -0 -0 -0 -0 -0 -0 -0 -0 -0 -0 -0 -0 -0 -0 -0 -0 -2 -3 -1 -0 -0 -0 -43 -0 -0 -1 -2 -9 -0 -0 -0 -0 -0 -0 -0
-0 -0 -0 -0 -0 -0 -0 -0 -0 -0 -0 -0 -0 -0 -0 -0 -0 -0 -0 -0 -0 -0 -1 -0 -1 -0 -1 -1 -1 -9 -59 -0 -0 -3 -6 -4 -11 -0 -0 -83 -3 -0 -0
-0 -0 -0 -0 -0 -0 -0 -0 -0 -0 -0 -0 -0 -0 -0 -0 -0 -0 -0 -0 -0 -0 -1 -0 -0 -0 -0 -6 -7 -9 -0 -0 -2 -3 -2 -7 -0 -0 -0 -28 -7 -24 -0
-0 -0 -0 -0 -0 -0 -0 -0 -0 -0 -0 -0 -0 -0 -0 -0 -0 -0 -0 -1 -0 -0 -0 -0 -2 -2 -0 -1 -13 -16 -11 -0 -0 -13 -2 -4 -0 -9 -33 -28 -87 -163 -0
-0 -0 -0 -0 -0 -0 -0 -0 -0 -0 -0 -0 -0 -0 -0 -0 -0 -0 -0 -1 -0 -1 -1 -0 -3 -1 -5 -6 -11 -25 -10 -0 -0 -36 -33 -10 -2 -1 -2 -26 -66 -85 -15
-0 -0 -0 -0 -0 -0 -0 -0 -0 -0 -0 -0 -0 -0 -0 -0 -0 -0 -1 -1 -0 -2 -0 -1 -1 -4 -5 -10 -9 -23 -0 -0 -0 -0 -85 -15 -11 -0 -0 -4 -8 -10 -0
-0 -0 -0 -0 -0 -0 -0 -0 -0 -0 -0 -0 -0 -0 -0 -0 -0 -0 -0 -2 -0 -0 -0 -0 -2 -1 -1 -0 -2 -15 -20 -0 -0 -0 -0 -4 -9 -2 -16 -9 -0 -1 -0
-0 -0 -0 -0 -0 -0 -0 -0 -0 -0 -0 -0 -0 -0 -0 -0 -0 -0 -0 -0 -0 -0 -0 -1 -5 -0 -0 -0 -0 -6 -4 -0 -0 -0 -0 -0 -1 -40 -35 -30 -2 -3 -0
-0 -0 -0 -0 -0 -0 -0 -0 -0 -0 -0 -0 -0 -0 -0 -0 -0 -0 -0 -0 -0 -0 -0 -0 -0 -1 -0 -0 -0 -2 -4 -0 -0 -0 -0 -0 -0 -0 -0 -14 -35 -8 -3
-0 -0 -0 -0 -0 -0 -0 -0 -0 -0 -0 -0 -0 -0 -0 -0 -0 -0 -0 -0 -0 -0 -0 -0 -0 -0 -0 -0 -0 -6 -44 -0 -0 -0 -0 -0 -0 -0 -0 -0 -0 -0 -0
-0 -0 -0 -0 -0 -0 -0 -0 -0 -0 -0 -0 -0 -0 -0 -0 -0 -0 -0 -0 -0 -0 -0 -1 -0 -0 -0 -0 -0 -6 -24 -0 -0 -0 -0 -0 -0 -0 -0 -0 -0 -0 -0
-0 -0 -0 -0 -0 -0 -0 -0 -0 -0 -0 -0 -0 -0 -0 -0 -0 -0 -0 -0 -5 -0 -0 -0 -0 -0 -0 -0 -0 -3 -2 -0 -0 -0 -0 -0 -0 -0 -0 -0 -0 -0 -0
Wind_Speed
14 15 14 14 14 15 16 16 16 17 18 19 20 20 20 20 20 21 22 22 22 22 22 21 21 21 21 21 20 20 18 15 14 13 13 11 8 7 7 7 8 9 9
15 15 15 15 15 15 15 16 16 17 18 19 20 20 20 20 20 21 22 22 23 22 22 22 22 21 21 22 21 21 20 19 15 13 12 9 6 6 6 5 5 9 8
16 16 15 15 15 15 15 16 16 17 18 19 20 20 20 21 21 22 22 22 22 22 22 22 23 23 23 22 23 22 23 21 19 15 11 7 6 5 6 4 4 7 6
16 16 16 16 16 15 16 16 16 17 18 19 19 20 21 21 22 22 23 23 23 23 24 23 23 23 24 24 25 25 26 23 22 21 11 7 6 4 4 3 4 5 4
17 17 16 16 16 16 16 16 16 17 18 19 20 20 21 22 22 23 23 24 24 24 24 23 23 23 23 24 24 24 24 24 23 21 14 14 11 7 3 1 3 3 3
18 17 17 17 17 16 16 16 17 17 18 19 20 20 21 22 23 24 24 25 25 25 25 25 24 24 24 25 24 23 23 23 23 16 18 22 15 14 6 3 3 3 2
19 18 18 17 17 17 16 16 17 17 18 19 20 21 22 23 24 24 25 25 25 25 25 26 25 25 26 26 25 24 24 24 21 17 15 19 20 18 13 8 6 4 3
19 19 18 18 18 17 16 16 17 17 18 19 20 21 22 23 24 24 24 24 25 25 25 26 25 26 26 26 26 26 27 26 23 20 18 18 21 22 20 18 13 7 5
18 19 18 18 17 17 17 16 16 17 17 18 19 21 22 22 23 23 23 24 24 25 26 26 26 26 27 28 28 27 27 27 25 23 22 22 21 23 22 23 18 12 7
18 18 17 17 16 16 15 15 16 16 17 17 19 20 21 19 22 22 23 24 25 25 26 27 28 28 29 28 28 27 28 28 25 23 24 25 23 25 26 24 23 16 7
16 16 16 16 15 15 14 14 15 15 15 16 17 20 20 22 22 22 22 24 25 27 28 28 29 29 28 27 24 25 27 24 24 24 25 26 27 29 29 27 24 19 8
15 15 15 15 14 14 13 13 13 14 15 16 18 20 21 22 22 21 20 22 23 27 26 28 28 27 27 29 29 25 25 25 25 25 26 24 28 32 32 28 23 22 12
14 13 13 13 13 12 12 12 12 13 14 16 18 20 21 22 23 23 24 25 26 27 29 31 30 30 30 30 29 26 25 26 25 25 26 25 29 31 31 29 23 20 12
12 12 12 11 11 11 12 11 12 13 14 16 18 20 20 21 22 23 24 24 25 27 29 28 28 30 30 30 28 24 26 25 24 24 25 24 26 28 30 30 28 20 11
11 11 10 10 10 10 11 12 12 13 14 16 17 19 20 21 22 23 24 24 25 27 26 28 29 29 30 29 25 25 22 21 24 24 23 20 24 27 29 31 31 17 11
10 10 9 9 9 10 10 11 12 13 15 16 17 19 20 20 22 22 23 24 26 25 25 27 28 30 28 25 25 24 19 10 14 19 20 23 24 25 27 31 31 21 17
9 8 8 7 8 9 10 10 12 13 14 16 17 18 19 20 21 22 22 24 25 22 24 26 28 29 29 28 26 21 15 6 13 15 15 18 18 23 25 24 17 23 25
7 7 7 6 7 8 9 10 11 13 14 15 16 17 18 19 20 20 22 24 24 23 24 24 26 28 27 28 25 19 13 12 6 9 10 14 17 19 18 6 2 6 8
5 6 6 5 5 7 8 10 11 13 14 15 16 17 18 19 19 19 22 23 23 21 23 24 24 27 26 28 26 21 20 17 6 6 7 10 15 14 12 8 3 4 17
2 4 5 3 4 6 8 10 11 12 13 14 15 16 16 18 18 19 21 23 22 22 22 24 23 24 24 23 22 21 20 16 11 6 5 7 4 5 10 9 4 4 26
3 2 3 2 3 5 6 8 10 10 12 13 14 15 16 17 18 18 20 22 22 22 21 22 20 22 23 21 19 20 20 16 10 7 6 7 6 7 6 5 5 7 13
5 3 2 2 2 3 5 7 10 10 11 13 13 14 15 16 17 18 19 21 21 21 20 23 20 20 22 22 22 17 21 20 14 8 8 7 7 4 2 3 7 15 22
9 6 4 3 2 2 4 7 9 11 13 12 12 13 14 15 16 17 18 19 19 19 19 21 20 20 20 24 24 23 22 21 19 13 7 9 6 5 5 10 13 20 17
10 7 5 3 2 1 3 4 6 9 11 11 11 13 14 15 15 17 17 18 18 18 18 19 19 18 18 23 24 26 24 21 19 14 5 9 14 12 20 18 16 15 13
10 8 6 4 3 1 1 4 5 8 10 11 11 12 13 14 15 17 17 18 18 17 17 17 18 19 20 21 24 23 25 23 31 30 29 23 17 14 17 13 11 12 12
9 8 6 5 3 2 0 3 5 7 9 10 10 11 12 13 14 16 17 18 18 17 16 17 16 18 19 21 21 21 24 27 27 30 31 27 25 17 13 10 9 9 13
Wind_Direction
79 72 73 66 58 51 40 41 42 35 25 19 15 11 9 5 360 356 354 350 347 345 346 346 346 344 344 342 342 341 341 342 343 342 338 342 356 1 19 25 27 26 24
82 70 74 64 53 45 47 47 43 34 27 21 18 16 11 8 5 1 357 351 347 347 347 347 346 343 340 339 340 338 335 334 337 340 339 345 354 350 359 10 35 356 21
79 65 70 59 55 53 56 51 43 37 30 24 22 18 14 8 3 359 356 354 355 356 353 347 342 338 337 336 332 331 329 327 326 331 336 346 347 336 331 348 353 353 13
73 70 68 65 60 70 66 57 49 40 32 29 25 18 12 7 2 358 355 354 353 350 347 345 345 341 337 331 325 319 313 322 321 316 326 326 325 329 326 318 324 336 352
73 76 73 68 73 78 73 63 52 44 37 32 24 16 12 6 0 356 354 351 349 348 348 346 345 344 340 334 328 325 320 318 319 318 316 312 312 308 295 254 293 307 322
92 93 87 79 86 85 76 65 56 49 41 32 24 18 11 3 358 355 353 351 347 346 347 345 345 342 339 333 332 330 325 321 315 320 315 304 300 301 287 259 236 274 273
105 107 99 92 94 90 80 70 58 50 41 33 26 18 11 4 1 359 356 354 351 348 347 345 345 341 337 334 332 329 324 318 317 310 308 306 299 293 291 282 263 246 225
115 116 112 104 102 95 83 69 60 49 41 34 26 19 13 7 3 2 0 357 355 353 351 348 345 342 338 334 330 326 320 316 312 305 298 293 290 289 286 282 281 260 239
118 118 120 115 108 93 82 72 62 52 45 36 27 19 15 12 9 8 6 1 358 356 353 349 346 343 338 333 330 325 320 315 307 301 294 289 281 279 280 276 278 273 242
124 119 118 114 111 101 90 75 67 57 48 39 29 23 20 24 15 14 9 4 2 358 354 349 345 342 338 334 330 325 319 312 305 298 289 282 280 273 271 271 270 273 228
126 123 119 116 109 99 89 81 70 61 52 45 37 25 23 16 15 14 12 9 4 358 354 351 348 346 343 339 334 330 324 316 308 299 290 280 273 267 263 266 267 271 228
126 122 120 115 106 96 88 83 74 64 53 44 33 24 21 18 17 19 19 13 9 4 3 359 356 353 350 344 340 335 329 321 310 298 288 283 272 260 255 261 266 265 253
131 122 121 111 101 96 85 78 72 63 53 44 33 26 24 21 19 16 14 11 10 9 4 1 360 358 353 350 346 343 336 321 309 298 286 280 268 257 252 254 261 260 249
133 125 116 106 94 90 79 76 64 60 51 44 35 29 27 25 22 20 17 16 16 12 9 9 7 3 0 359 357 356 345 337 318 299 285 277 264 254 247 246 247 251 238
134 126 114 102 89 81 74 65 60 54 48 41 38 32 30 28 25 24 22 22 19 16 17 14 13 12 10 12 14 9 7 3 315 293 282 276 259 247 240 235 237 242 207
139 130 113 101 87 75 68 63 56 51 45 42 38 34 32 32 29 29 28 26 22 23 23 22 22 20 22 27 25 25 36 68 244 302 281 260 249 238 231 227 235 238 178
141 128 116 98 87 74 64 62 54 47 45 42 40 38 35 36 32 33 33 29 26 31 29 29 30 28 32 37 40 51 72 124 281 297 269 245 233 220 220 232 251 247 174
138 134 117 95 84 72 61 58 51 44 45 42 42 41 39 38 37 39 37 33 33 37 37 39 37 37 43 46 54 73 94 102 234 252 242 225 217 215 222 186 198 55 92
147 135 123 90 78 66 56 51 44 43 45 43 43 43 42 41 42 45 40 38 39 45 45 46 48 49 53 58 64 80 84 91 153 199 223 210 206 215 211 207 121 110 118
186 138 123 81 75 61 53 44 39 39 45 45 43 45 46 45 47 50 45 41 44 50 52 51 55 57 62 72 80 88 92 105 124 143 169 191 168 185 202 214 223 214 113
260 172 148 115 86 66 54 42 35 40 45 45 45 48 48 49 50 53 47 45 50 52 59 59 63 64 70 79 97 103 102 110 108 111 130 146 148 159 186 238 226 215 106
259 234 212 163 118 71 54 36 29 42 43 45 48 51 50 52 52 55 51 50 54 59 66 61 70 77 80 84 93 112 114 117 117 106 123 117 123 132 57 18 134 121 153
257 244 213 191 154 89 59 33 31 32 34 41 50 54 53 54 55 56 56 57 59 64 71 68 77 83 88 86 94 107 119 125 127 129 84 60 77 93 70 66 129 140 122
256 247 223 209 177 109 66 38 39 31 32 42 53 57 53 54 57 54 59 59 65 70 75 79 81 91 100 94 97 102 118 126 139 143 87 53 50 60 58 78 114 126 119
250 239 224 216 200 164 52 27 32 25 28 45 49 55 56 54 57 53 59 60 63 74 81 86 87 90 102 108 106 121 112 130 98 115 70 52 49 55 72 92 113 118 101
248 231 219 210 213 211 353 13 22 23 31 40 46 50 56 53 55 53 57 58 60 72 84 90 98 91 101 102 117 121 105 115 111 100 82 96 65 60 70 78 117 123 83